Location: Anna District 4 Election Precinct
(37.4833°N, 89.2195°W)
Time: 23:20:46
(UTC+00:00)

NOAA 12 - Pass Details

Date: 12 March 2021
Orbit: 795 x 815 km, 98.5° (Epoch: 12 April)

Event Time Altitude Azimuth Distance (km) Brightness Sun altitude
Rises 10:58:51 0° 32° (NNE) 3,338 7.9 -15.3°
Reaches altitude 10° 11:02:01 10° 52° (NE) 2,398 7.5 -14.7°
Maximum altitude 11:05:28 17° 92° (E) 1,921 7.2 -14.0°
Drops below altitude 10° 11:08:53 10° 133° (SE) 2,379 7.1 -13.3°
Sets 11:12:00 0° 153° (SSE) 3,300 7.6 -12.7°
